Location: Wien
(48.2082°N, 16.3738°E)
Time: 08:51:40
(UTC+02:00)

Transit 4A - Pass Details

Date: 01 March 2024
Orbit: 871 x 971 km, 66.8° (Epoch: 24 April)

Event Time Altitude Azimuth Distance (km) Brightness Sun altitude
Rises 05:45:27 0° 320° (NW) 3,527 10.5 -9.1°
Reaches altitude 10° 05:49:10 10° 343° (NNW) 2,566 10.0 -8.4°
Maximum altitude 05:52:34 15° 18° (NNE) 2,188 10.1 -7.9°
Drops below altitude 10° 05:55:56 10° 53° (NE) 2,537 11.0 -7.3°
Sets 05:59:34 0° 76° (ENE) 3,466 12.6 -6.7°
